RYR1FD EGNM-EIDW

Flight info

Callsign RYR1FD
Flight time 0h 33m
Altitude 28000
Route POL Y70 KOLID UL70 GUNTU Z196 LELDO M145 BAGSO BAGSO4L
Aircraft B738/M-SDE2E3FGHIRWXY/LB1

Departure

Time 2026-05-04 20:28
Airport Leeds Bradford Airport (EGNM)

Arrival

Time 2026-05-04 21:02
Airport Dublin Airport (EIDW)
Time Latitude Longitude Altitude Speed Heading
2026-05-04 20:17 53.86876 -1.65548 664 ft 0 kts
2026-05-04 20:18 53.86863 -1.65549 663 ft 4 kts
2026-05-04 20:19 53.86837 -1.65547 661 ft 4 kts 341°
2026-05-04 20:19 53.86817 -1.65524 660 ft 4 kts 295°
2026-05-04 20:19 53.86813 -1.65494 659 ft 1 kts 271°
2026-05-04 20:19 53.86813 -1.65489 659 ft 0 kts 271°
2026-05-04 20:21 53.86815 -1.65645 663 ft 19 kts 271°
2026-05-04 20:21 53.86739 -1.65626 664 ft 13 kts 91°
2026-05-04 20:22 53.86732 -1.65461 662 ft 14 kts 115°
2026-05-04 20:22 53.86638 -1.65425 661 ft 14 kts 184°
2026-05-04 20:22 53.86541 -1.65435 666 ft 14 kts 184°
2026-05-04 20:22 53.86450 -1.65444 670 ft 11 kts 184°
2026-05-04 20:23 53.86429 -1.65446 672 ft 0 kts 184°
2026-05-04 20:25 53.86418 -1.65447 673 ft 4 kts 184°
2026-05-04 20:25 53.86364 -1.65454 677 ft 15 kts 183°
2026-05-04 20:26 53.86234 -1.65462 679 ft 19 kts 175°
2026-05-04 20:26 53.86129 -1.65346 679 ft 18 kts 139°
2026-05-04 20:26 53.86026 -1.65187 673 ft 22 kts 138°
2026-05-04 20:26 53.85917 -1.64992 664 ft 21 kts 114°
2026-05-04 20:27 53.85862 -1.64949 663 ft 5 kts 269°
2026-05-04 20:27 53.85891 -1.64987 663 ft 5 kts 328°
2026-05-04 20:27 53.85903 -1.65003 663 ft 0 kts 319°
2026-05-04 20:27 53.85906 -1.65007 663 ft 5 kts 319°
2026-05-04 20:28 53.86136 -1.65362 680 ft 87 kts 317°
2026-05-04 20:28 53.86782 -1.66360 681 ft 161 kts 316°
2026-05-04 20:28 53.87696 -1.67632 1462 ft 174 kts 321°
2026-05-04 20:28 53.88553 -1.69118 2587 ft 171 kts 311°
2026-05-04 20:29 53.89328 -1.70717 3253 ft 183 kts 305°
2026-05-04 20:29 53.90004 -1.72730 3364 ft 210 kts 288°
2026-05-04 20:29 53.90136 -1.75338 3343 ft 243 kts 260°
2026-05-04 20:29 53.89565 -1.78223 3815 ft 261 kts 251°
2026-05-04 20:30 53.88868 -1.81041 4811 ft 260 kts 239°
2026-05-04 20:30 53.87765 -1.83480 5714 ft 262 kts 231°
2026-05-04 20:30 53.86629 -1.85919 6529 ft 266 kts 238°
2026-05-04 20:30 53.85678 -1.88565 7316 ft 268 kts 241°
2026-05-04 20:31 53.84736 -1.91357 8144 ft 272 kts 242°
2026-05-04 20:31 53.83795 -1.94153 8949 ft 275 kts 242°
2026-05-04 20:31 53.82837 -1.96971 9757 ft 278 kts 242°
2026-05-04 20:31 53.81870 -1.99786 10431 ft 286 kts 241°
2026-05-04 20:32 53.80824 -2.02811 10622 ft 310 kts 241°
2026-05-04 20:32 53.79699 -2.06041 11012 ft 325 kts 240°
2026-05-04 20:32 53.78537 -2.09359 11677 ft 330 kts 240°
2026-05-04 20:32 53.77359 -2.12704 12467 ft 332 kts 240°
2026-05-04 20:33 53.76167 -2.16081 13256 ft 336 kts 240°
2026-05-04 20:33 53.74960 -2.19492 14017 ft 340 kts 239°
2026-05-04 20:33 53.73740 -2.22938 14731 ft 344 kts 239°
2026-05-04 20:33 53.72504 -2.26421 15447 ft 348 kts 239°
2026-05-04 20:34 53.71250 -2.29951 16156 ft 352 kts 239°
2026-05-04 20:34 53.69983 -2.33513 16918 ft 356 kts 239°
2026-05-04 20:34 53.68702 -2.37111 17651 ft 359 kts 239°
2026-05-04 20:34 53.67408 -2.40740 18354 ft 364 kts 239°
2026-05-04 20:35 53.66098 -2.44411 18965 ft 368 kts 239°
2026-05-04 20:35 53.64769 -2.48125 19581 ft 371 kts 239°
2026-05-04 20:35 53.63424 -2.51876 20151 ft 376 kts 239°
2026-05-04 20:35 53.62154 -2.55768 20647 ft 383 kts 245°
2026-05-04 20:36 53.61136 -2.59908 21266 ft 386 kts 248°
2026-05-04 20:36 53.60152 -2.64179 21670 ft 395 kts 248°
2026-05-04 20:36 53.59130 -2.68506 22211 ft 399 kts 248°
2026-05-04 20:36 53.58173 -2.72905 22849 ft 402 kts 255°
2026-05-04 20:37 53.57785 -2.75949 23304 ft 402 kts 262°
2026-05-04 20:37 53.57617 -2.82024 24106 ft 401 kts 275°
2026-05-04 20:37 53.57861 -2.86667 24829 ft 397 kts 276°
2026-05-04 20:37 53.58131 -2.91288 25451 ft 396 kts 276°
2026-05-04 20:38 53.58381 -2.95912 26012 ft 397 kts 276°
2026-05-04 20:38 53.58608 -3.00543 26598 ft 397 kts 275°
2026-05-04 20:38 53.58753 -3.03603 27011 ft 396 kts 275°
2026-05-04 20:38 53.58981 -3.08214 27624 ft 395 kts 276°
2026-05-04 20:39 53.59213 -3.12816 28072 ft 397 kts 276°
2026-05-04 20:39 53.59478 -3.17405 28039 ft 388 kts 280°
2026-05-04 20:39 53.59950 -3.21804 28045 ft 376 kts 283°
2026-05-04 20:39 53.60502 -3.26157 27295 ft 383 kts 284°
2026-05-04 20:40 53.61079 -3.30532 26828 ft 383 kts 284°
2026-05-04 20:40 53.61645 -3.34892 26491 ft 379 kts 283°
2026-05-04 20:40 53.62192 -3.39220 26117 ft 377 kts 283°
2026-05-04 20:40 53.62726 -3.43533 25752 ft 374 kts 283°
2026-05-04 20:41 53.63249 -3.47812 25408 ft 372 kts 283°
2026-05-04 20:41 53.63767 -3.52070 25059 ft 370 kts 282°
2026-05-04 20:41 53.64279 -3.56301 24717 ft 367 kts 282°
2026-05-04 20:41 53.64786 -3.60512 24374 ft 365 kts 282°
2026-05-04 20:42 53.65306 -3.64685 24058 ft 362 kts 284°
2026-05-04 20:42 53.65895 -3.68795 23748 ft 359 kts 285°
2026-05-04 20:42 53.66507 -3.72862 23384 ft 357 kts 285°
2026-05-04 20:42 53.67117 -3.76914 23018 ft 355 kts 285°
2026-05-04 20:43 53.67715 -3.80933 22678 ft 352 kts 284°
2026-05-04 20:43 53.68301 -3.84920 22344 ft 349 kts 285°
2026-05-04 20:43 53.68876 -3.88870 22024 ft 345 kts 284°
2026-05-04 20:43 53.69444 -3.92787 21686 ft 343 kts 284°
2026-05-04 20:44 53.70005 -3.96673 21364 ft 340 kts 284°
2026-05-04 20:44 53.70561 -4.00535 21038 ft 337 kts 284°
2026-05-04 20:44 53.71110 -4.04369 20715 ft 335 kts 284°
2026-05-04 20:44 53.71645 -4.08181 20398 ft 332 kts 281°
2026-05-04 20:45 53.71929 -4.12022 20133 ft 328 kts 274°
2026-05-04 20:45 53.72057 -4.15847 19886 ft 325 kts 272°
2026-05-04 20:45 53.72164 -4.19635 19664 ft 321 kts 273°
2026-05-04 20:45 53.72276 -4.23373 19396 ft 318 kts 273°
2026-05-04 20:46 53.72396 -4.27089 19099 ft 316 kts 273°
2026-05-04 20:46 53.72522 -4.30792 18799 ft 315 kts 273°
2026-05-04 20:46 53.72652 -4.34489 18502 ft 317 kts 273°
2026-05-04 20:46 53.72787 -4.38308 18192 ft 340 kts 273°
2026-05-04 20:47 53.72843 -4.42425 17712 ft 368 kts 265°
2026-05-04 20:47 53.72329 -4.46716 16791 ft 379 kts 252°
2026-05-04 20:47 53.71435 -4.51052 15767 ft 391 kts 250°
2026-05-04 20:47 53.70512 -4.55320 15382 ft 384 kts 250°
2026-05-04 20:48 53.69604 -4.59500 14986 ft 388 kts 250°
2026-05-04 20:48 53.68657 -4.63887 14596 ft 395 kts 250°
2026-05-04 20:48 53.67721 -4.68260 14194 ft 396 kts 250°
2026-05-04 20:48 53.66794 -4.72614 13778 ft 393 kts 251°
2026-05-04 20:49 53.65889 -4.76873 13371 ft 390 kts 251°
2026-05-04 20:49 53.64981 -4.81160 12996 ft 387 kts 251°
2026-05-04 20:49 53.64068 -4.85468 12602 ft 385 kts 251°
2026-05-04 20:49 53.63180 -4.89646 12225 ft 383 kts 251°
2026-05-04 20:50 53.62285 -4.93852 11854 ft 381 kts 251°
2026-05-04 20:50 53.61391 -4.98046 11473 ft 381 kts 251°
2026-05-04 20:50 53.60495 -5.02243 11089 ft 380 kts 251°
2026-05-04 20:50 53.59602 -5.06414 10710 ft 373 kts 251°
2026-05-04 20:51 53.58746 -5.10399 10337 ft 354 kts 251°
2026-05-04 20:51 53.57936 -5.14161 10121 ft 331 kts 251°
2026-05-04 20:51 53.57172 -5.17704 9844 ft 314 kts 251°
2026-05-04 20:51 53.56445 -5.21074 9539 ft 300 kts 251°
2026-05-04 20:52 53.55748 -5.24299 9264 ft 287 kts 251°
2026-05-04 20:52 53.55078 -5.27399 8984 ft 277 kts 251°
2026-05-04 20:52 53.54425 -5.30414 8713 ft 273 kts 251°
2026-05-04 20:52 53.53779 -5.33395 8447 ft 270 kts 251°
2026-05-04 20:53 53.53133 -5.36368 8200 ft 273 kts 251°
2026-05-04 20:53 53.52477 -5.39390 7931 ft 278 kts 251°
2026-05-04 20:53 53.51815 -5.42432 7654 ft 277 kts 251°
2026-05-04 20:53 53.51155 -5.45455 7376 ft 274 kts 251°
2026-05-04 20:54 53.50500 -5.48451 7107 ft 271 kts 251°
2026-05-04 20:54 53.49851 -5.51412 6848 ft 269 kts 251°
2026-05-04 20:54 53.49210 -5.54339 6589 ft 266 kts 251°
2026-05-04 20:54 53.48571 -5.57247 6321 ft 264 kts 251°
2026-05-04 20:55 53.47941 -5.60115 6074 ft 261 kts 251°
2026-05-04 20:55 53.47315 -5.62960 5806 ft 258 kts 251°
2026-05-04 20:55 53.46695 -5.65771 5531 ft 257 kts 252°
2026-05-04 20:55 53.46072 -5.68594 5233 ft 257 kts 252°
2026-05-04 20:56 53.45453 -5.71397 4963 ft 256 kts 251°
2026-05-04 20:56 53.44834 -5.74197 4699 ft 255 kts 252°
2026-05-04 20:56 53.44221 -5.76959 4586 ft 252 kts 252°
2026-05-04 20:56 53.43609 -5.79722 4474 ft 254 kts 252°
2026-05-04 20:57 53.42988 -5.82522 4369 ft 258 kts 252°
2026-05-04 20:57 53.42357 -5.85362 4261 ft 261 kts 252°
2026-05-04 20:57 53.41720 -5.88222 4093 ft 264 kts 252°
2026-05-04 20:57 53.41069 -5.91138 3803 ft 268 kts 252°
2026-05-04 20:58 53.40448 -5.94054 3509 ft 262 kts 259°
2026-05-04 20:58 53.40474 -5.96971 3253 ft 244 kts 285°
2026-05-04 20:58 53.40750 -5.99730 2984 ft 238 kts 277°
2026-05-04 20:58 53.40834 -6.02463 2667 ft 234 kts 274°
2026-05-04 20:59 53.40918 -6.05172 2459 ft 227 kts 277°
2026-05-04 20:59 53.41086 -6.07714 2293 ft 215 kts 279°
2026-05-04 20:59 53.41256 -6.10202 1961 ft 210 kts 277°
2026-05-04 20:59 53.41329 -6.12515 1840 ft 188 kts 277°
2026-05-04 21:00 53.41565 -6.14573 1549 ft 173 kts 273°
2026-05-04 21:00 53.41514 -6.16544 1240 ft 167 kts 274°
2026-05-04 21:00 53.41662 -6.18379 1059 ft 151 kts 279°
2026-05-04 21:00 53.41764 -6.20120 886 ft 151 kts 274°
2026-05-04 21:01 53.41850 -6.21862 677 ft 148 kts 273°
2026-05-04 21:01 53.41944 -6.23569 437 ft 144 kts 275°
2026-05-04 21:01 53.42040 -6.25223 236 ft 142 kts 274°
2026-05-04 21:01 53.42113 -6.26734 210 ft 114 kts 278°
2026-05-04 21:02 53.42188 -6.27650 208 ft 43 kts 274°
2026-05-04 21:02 53.42265 -6.28034 216 ft 20 kts 301°
2026-05-04 21:02 53.42358 -6.28086 210 ft 16 kts 65°
2026-05-04 21:02 53.42355 -6.27901 212 ft 16 kts 95°
2026-05-04 21:03 53.42343 -6.27681 210 ft 21 kts 95°
2026-05-04 21:03 53.42328 -6.27431 210 ft 21 kts 94°
2026-05-04 21:03 53.42315 -6.27188 210 ft 21 kts 96°
2026-05-04 21:03 53.42301 -6.26952 210 ft 20 kts 93°
2026-05-04 21:04 53.42291 -6.26723 210 ft 19 kts 97°
2026-05-04 21:04 53.42278 -6.26501 214 ft 19 kts 96°
2026-05-04 21:04 53.42266 -6.26287 210 ft 18 kts 95°
2026-05-04 21:04 53.42302 -6.26096 210 ft 18 kts 54°
2026-05-04 21:05 53.42385 -6.25952 210 ft 17 kts 46°
2026-05-04 21:05 53.42465 -6.25812 211 ft 16 kts 45°
2026-05-04 21:05 53.42544 -6.25681 210 ft 16 kts 45°
2026-05-04 21:05 53.42667 -6.25471 212 ft 27 kts 45°
2026-05-04 21:06 53.42796 -6.25249 211 ft 26 kts 46°
2026-05-04 21:06 53.42945 -6.25200 213 ft 16 kts 25°
2026-05-04 21:06 53.42956 -6.25076 212 ft 13 kts 95°
2026-05-04 21:06 53.42948 -6.24925 214 ft 13 kts 94°
2026-05-04 21:07 53.42942 -6.24788 210 ft 11 kts 88°
2026-05-04 21:07 53.42981 -6.24751 210 ft 6 kts
2026-05-04 21:07 53.42997 -6.24748 210 ft 0 kts